{"data":{"norad_id":61020,"epoch":"2026-09-22T20:15:55.846368Z","epoch_age_seconds":89193,"freshness":"FRESH","line1":"1 61020U 24159K   26265.84439637  .00001069  00000+0  15225-3 0  9998","line2":"2 61020  50.0013 350.1655 0003729 131.0967 229.0294 14.84517503111013","mean_motion":14.84517503,"eccentricity":0.0003729,"inclination_deg":50.0013,"raan_deg":350.1655,"arg_perigee_deg":131.0967,"mean_anomaly_deg":229.0294,"bstar":0.00015225,"rev_number":11101,"period_min":97.001214003201,"perigee_km":612.49296786622,"apogee_km":617.70852457735,"semimajor_km":6993.2377462218,"source":"CELESTRAK","updated_at":"2026-09-23T09:00:20.801392Z"}}